User: anonymous   Login
Location: ????????
(55.0097°N, 38.5678°E)
Time: 22:05:16
(UTC+00:00)
Language:

NOAA 16 DEB - Orbit

View from above orbital plane
View from above orbital plane
View from above satellite
View from above satellite

Ground track
Ground track

The orbit data is extracted from the following two-line orbital elements,

1 41279U 00055GF  24261.43967563  .00021151  00000-0  11408-1 0  9996
2 41279  98.7966 320.3013 0031630 291.6897  68.0908 14.12398796448554
Epoch (UTC): 17 September 2024 10:33:07
Eccentricity: 0.0031630
inclination: 98.7966°
perigee height: 828 km
apogee height: 874 km
right ascension of ascending node: 320.3013°
argument of perigee: 291.6897°
revolutions per day: 14.12398796
mean anomaly at epoch: 68.0908°
orbit number at epoch: 44855

The dashed part of the orbit path shows where the satellite is in the earth's shadow,  

DLR